Temperature
20 20 20 19 19 18 18 18 17 17 17 17 16 16 16 16 16 15 15 15 15 15 15 15 15 14 14 14 14 14 14 14 14 14 14 14 14 14 14 14 14 14 13
20 20 20 19 19 18 18 18 17 17 17 16 16 16 16 16 15 15 15 15 15 15 15 15 14 14 14 14 14 14 14 14 14 14 14 14 14 14 14 14 14 13 13
20 19 19 19 18 18 18 17 17 17 17 16 16 16 16 15 15 15 15 15 15 15 15 14 14 14 14 14 14 14 14 14 14 14 14 14 13 13 13 13 13 13 13
20 19 19 19 18 18 18 17 17 17 16 16 16 16 16 15 15 15 15 15 14 14 14 14 14 14 14 14 14 14 13 13 13 13 14 13 13 13 13 13 13 13 13
20 19 19 19 18 18 17 17 17 16 16 16 16 16 15 15 15 15 15 14 14 14 14 14 14 14 14 14 14 13 13 13 13 13 13 13 13 13 13 12 13 13 12
20 19 19 18 18 17 17 17 17 16 16 16 16 16 15 15 15 15 14 14 14 14 14 14 14 14 14 13 13 13 13 13 13 13 13 13 13 13 13 12 12 12 12
20 19 18 18 18 17 17 17 17 16 16 16 16 15 15 15 15 15 14 14 14 14 14 14 14 14 14 13 13 13 13 13 13 13 13 13 13 13 13 12 12 12 12
20 19 18 18 18 17 17 17 16 16 16 16 16 15 15 15 15 14 14 14 14 14 14 13 13 13 13 13 13 13 13 13 13 12 12 12 12 12 12 12 12 12 12
20 19 18 18 17 17 17 16 16 16 15 15 15 15 15 15 14 14 14 14 14 14 13 13 13 13 13 13 13 13 13 12 12 12 12 12 12 12 12 12 12 12 11
20 19 18 18 17 17 17 16 16 16 15 15 15 15 15 14 14 14 14 14 14 13 13 13 13 13 13 13 13 12 12 12 12 12 12 12 12 12 12 12 12 12 11
19 18 18 17 17 17 16 16 16 15 15 15 15 14 14 14 14 14 14 13 13 13 13 13 13 12 12 12 12 12 12 12 12 12 12 12 11 11 11 11 11 11 11
19 18 18 17 17 16 16 16 15 15 15 15 14 14 14 14 14 13 13 13 13 13 13 13 12 12 12 12 12 12 12 12 11 11 11 11 11 11 11 11 11 11 11
18 18 17 17 16 16 16 15 15 15 15 14 14 14 14 14 13 13 13 13 13 13 13 13 12 12 12 12 12 11 11 11 11 11 11 11 11 11 11 11 11 11 11
18 17 16 16 16 16 15 15 15 15 14 14 14 14 14 13 13 13 13 13 12 12 12 12 12 12 12 12 11 11 11 11 11 11 11 11 11 11 11 11 10 10 10
17 17 16 16 16 15 15 15 15 14 14 14 14 14 14 13 13 13 13 12 12 12 12 12 12 12 11 11 11 11 11 11 11 11 11 10 10 10 10 10 10 10 10
17 17 16 16 15 15 15 15 15 14 14 14 13 13 13 13 13 12 12 12 12 12 11 11 11 11 11 11 11 11 11 11 11 11 10 10 10 10 10 10 10 10 10
16 16 16 16 15 15 15 15 14 14 14 13 13 13 13 13 12 12 12 12 11 11 11 11 11 11 11 11 11 11 11 11 10 10 10 10 10 10 10 10 10 10 10
16 15 15 15 15 15 15 14 14 14 14 13 13 12 12 12 12 12 12 11 11 11 11 11 11 11 11 11 11 11 11 11 10 10 10 10 10 10 10 10 10 10 9
15 15 15 15 15 15 14 14 14 13 13 13 13 12 12 12 12 12 11 11 11 11 11 11 11 11 11 11 11 11 10 10 10 10 10 10 10 10 9 9 9 9 9
15 14 14 14 14 14 14 14 13 13 13 12 12 12 12 12 11 11 11 11 11 10 10 10 10 10 10 10 10 10 10 10 10 9 9 9 9 9 9 9 9 9 9
14 14 14 14 14 14 13 13 13 13 12 12 12 12 12 11 11 11 11 10 10 10 10 10 10 10 10 10 10 10 10 9 9 9 9 9 9 9 9 9 9 9 8
13 13 13 13 13 13 13 13 12 12 12 12 12 11 11 11 11 11 10 10 10 10 10 10 9 9 9 9 9 9 9 9 9 9 9 9 9 9 8 8 8 8 8
13 13 13 13 13 13 12 12 12 12 12 11 11 11 11 11 11 10 10 10 10 9 9 9 9 9 9 9 9 9 9 9 8 8 8 8 8 8 8 8 8 8 8
12 12 12 12 12 12 12 12 12 11 11 11 11 11 10 10 10 10 10 9 9 9 9 9 9 9 9 9 9 9 8 8 8 8 8 8 8 8 8 7 7 7 7
12 12 12 12 12 12 11 11 11 11 11 11 10 10 10 10 10 9 9 9 9 9 9 9 9 9 9 9 9 9 8 8 8 8 7 7 7 7 7 7 7 7 7
12 11 12 11 11 11 11 11 11 11 10 10 10 10 10 9 9 9 9 9 9 9 9 9 9 9 9 8 8 8 8 8 7 7 7 7 7 7 7 7 7 6 6
Wind_Speed
6 5 5 5 6 6 5 5 4 4 4 2 2 2 2 1 2 2 3 3 4 5 4 3 3 3 2 2 3 3 3 2 2 2 2 2 2 2 2 2 3 4 5
6 5 5 5 4 5 5 5 4 4 4 3 2 2 2 1 2 2 3 3 3 4 3 2 2 3 2 2 3 2 2 1 1 1 1 1 2 3 1 1 1 2 3
8 7 6 6 5 4 4 5 4 4 4 4 2 2 2 2 2 2 1 2 3 4 4 3 2 2 2 1 1 2 2 1 1 2 1 1 1 1 1 2 2 2 2
5 6 6 5 5 4 3 3 3 4 4 4 3 3 2 1 1 2 1 1 2 3 3 3 3 2 2 2 1 1 1 1 1 1 2 1 1 1 0 1 1 2 2
5 5 5 4 4 4 4 3 3 3 4 4 4 3 2 2 1 2 2 1 1 2 3 3 2 2 2 1 1 2 1 1 1 1 1 2 2 1 1 0 0 1 1
5 5 5 5 4 3 4 4 4 3 3 4 4 4 4 3 2 2 2 1 1 1 2 2 2 2 1 1 1 1 1 1 1 1 0 1 1 1 1 1 1 0 0
6 5 5 5 4 3 3 4 4 4 4 4 4 4 5 4 4 3 2 1 1 1 1 1 1 1 1 1 1 1 1 0 1 1 0 1 1 1 1 1 0 0 0
6 6 6 5 5 4 3 3 4 4 4 4 4 4 4 3 2 2 2 2 1 1 1 1 1 1 2 1 1 1 0 0 1 0 0 0 0 1 1 1 1 0 0
6 6 6 6 5 4 4 4 4 4 3 4 4 3 3 3 2 2 2 2 1 1 1 1 1 2 2 1 1 1 0 0 1 0 0 0 0 0 0 1 1 1 0
5 5 5 5 5 4 4 4 4 4 3 3 3 3 3 3 2 2 1 1 2 1 2 1 1 1 2 1 1 1 0 1 1 0 1 0 0 0 1 1 0 0 1
4 4 5 4 4 4 4 3 4 4 3 3 2 3 3 2 2 2 1 1 1 1 1 1 1 1 1 1 1 1 1 1 1 1 0 1 1 1 1 0 0 1 1
4 4 5 4 4 3 3 3 3 4 3 3 3 3 3 2 2 1 1 1 1 1 1 1 1 1 0 0 1 1 0 1 1 1 1 1 0 0 0 0 1 1 1
5 5 4 3 3 3 3 2 2 3 4 3 3 4 4 3 2 2 1 1 1 1 1 0 1 1 1 0 1 0 0 1 1 1 1 1 1 1 1 0 1 1 1
4 4 4 3 3 2 2 2 2 2 3 3 3 3 4 3 3 3 2 2 1 1 1 0 1 1 1 0 0 0 1 0 1 1 1 1 1 1 1 1 1 1 1
4 4 4 3 3 2 2 2 3 2 2 3 3 3 3 3 2 2 2 2 2 1 1 1 0 0 1 0 0 0 1 0 0 0 0 0 1 1 0 0 1 1 1
2 3 3 3 3 3 2 2 3 3 3 3 2 3 3 2 2 2 2 2 2 1 0 1 1 0 1 0 1 0 1 0 0 0 0 1 1 1 1 1 1 1 1
1 1 1 2 3 3 3 3 3 3 3 3 2 3 3 3 2 2 2 2 2 1 1 1 1 1 0 1 1 0 1 1 1 0 0 0 0 1 1 1 0 0 1
1 0 1 0 1 2 2 3 3 3 3 3 3 3 3 3 2 2 2 2 2 2 1 1 1 1 1 1 1 1 1 1 1 1 0 1 1 1 1 1 1 1 1
1 1 0 0 1 1 2 3 3 3 3 3 3 3 3 3 3 3 2 2 2 2 2 1 1 1 1 1 1 1 1 1 1 0 1 1 2 1 1 1 1 1 1
1 1 1 1 0 1 2 3 2 2 3 2 2 2 3 3 3 3 2 2 2 3 3 2 2 2 2 3 3 2 1 1 1 1 1 1 2 2 1 1 1 0 1
2 1 1 1 1 1 2 2 2 2 2 2 2 1 2 3 3 3 2 2 2 3 3 3 2 2 2 3 4 4 2 1 1 1 1 1 3 2 1 1 1 1 1
1 1 0 0 1 1 2 1 2 1 2 2 2 2 2 2 2 2 3 3 3 3 3 3 2 2 2 2 3 4 4 2 1 1 0 2 4 3 2 1 1 1 0
1 1 1 1 1 1 2 1 1 2 3 2 2 3 3 2 3 3 3 2 3 3 3 3 3 2 2 2 3 5 4 3 2 2 2 1 3 4 3 3 3 2 1
1 1 1 1 2 2 2 1 1 2 3 3 3 3 2 2 2 2 2 2 3 3 3 3 3 2 2 1 1 2 3 3 2 1 2 3 3 2 2 2 2 2 2
1 1 2 2 3 2 2 2 2 2 3 3 3 3 2 3 3 2 1 2 3 4 4 3 3 3 3 3 3 2 2 2 2 1 1 1 1 1 1 1 2 2 2
2 2 2 2 3 2 2 2 2 3 3 3 3 2 2 2 2 2 1 1 2 4 5 4 4 3 4 4 3 3 4 4 3 2 2 2 2 2 2 2 2 2 2
Wind_Direction
164 152 150 141 143 148 139 131 135 132 121 105 94 93 88 73 73 81 79 72 64 70 67 60 61 62 67 64 77 80 64 51 58 70 45 20 60 83 77 49 57 59 68
160 156 146 138 151 147 141 143 136 130 125 124 126 122 109 97 85 60 52 51 66 76 79 87 83 72 57 55 79 82 70 22 19 51 77 54 17 11 50 75 68 61 65
164 161 158 151 152 148 154 153 150 146 140 132 119 99 89 87 81 77 51 29 60 77 66 64 84 101 99 71 72 88 89 60 357 36 68 104 169 312 7 58 74 57 63
156 150 157 153 152 152 150 152 159 149 139 134 133 138 136 135 128 129 142 91 69 78 81 74 67 81 87 78 37 74 86 95 19 3 17 40 109 138 100 351 41 59 66
153 148 150 147 141 143 153 172 169 148 144 149 149 157 149 141 129 119 121 110 92 90 91 86 84 80 84 85 54 57 62 85 83 48 3 13 4 15 119 199 324 21 44
154 151 146 140 141 134 161 172 171 155 146 159 163 164 155 155 140 128 123 133 129 105 100 96 93 92 96 88 70 74 52 58 87 55 22 63 43 16 71 163 199 162 299
155 148 143 149 148 152 159 172 165 162 163 175 176 174 165 173 166 166 165 164 132 108 118 84 103 95 87 99 96 117 143 153 148 188 297 52 41 57 63 94 209 187 233
152 148 156 156 154 159 161 162 173 174 172 183 190 170 158 163 168 172 147 161 162 172 164 125 124 111 82 63 65 77 120 102 127 155 129 83 27 63 91 120 120 334 337
147 148 153 152 154 161 167 177 173 168 172 190 178 165 156 144 146 161 141 145 154 176 128 122 122 113 100 81 89 85 30 40 71 158 179 130 150 104 96 99 138 148 204
129 130 132 140 153 156 162 169 168 170 169 182 174 163 151 149 151 161 160 159 163 150 144 147 141 125 109 101 103 105 66 77 36 67 75 31 75 29 74 88 320 179 171
127 128 130 138 137 140 146 154 167 166 165 167 159 152 141 148 151 166 165 143 115 123 155 163 176 138 134 136 134 136 137 162 211 241 147 237 173 184 170 122 22 311 137
125 121 130 133 132 143 154 158 176 168 159 165 162 158 153 145 140 140 133 117 108 132 157 161 159 137 128 119 131 150 181 185 197 210 195 239 229 214 176 166 208 242 190
128 123 122 128 135 145 148 156 171 163 156 161 165 161 154 153 162 155 137 126 132 99 104 150 144 138 122 68 42 59 200 197 204 205 206 227 221 235 236 233 204 202 180
130 128 130 133 133 142 155 155 146 139 153 159 169 167 162 157 161 157 152 142 140 118 110 155 136 121 111 94 260 247 282 185 207 222 214 209 225 246 210 211 186 149 151
147 148 150 149 147 151 173 163 154 153 158 163 166 154 137 128 134 143 143 131 126 131 134 113 96 122 161 228 100 258 284 262 259 245 183 127 84 57 111 203 150 114 148
161 164 165 162 171 180 191 168 161 165 162 161 157 137 132 128 132 139 133 125 125 142 118 126 146 178 282 117 123 100 274 268 297 244 201 155 107 83 102 86 112 126 157
113 119 190 190 196 194 191 176 175 161 162 163 155 143 142 147 151 143 130 139 154 156 155 186 186 192 190 127 111 322 274 215 232 265 266 283 123 71 98 155 122 142 227
34 34 301 255 213 191 171 158 153 151 160 157 151 139 145 151 145 135 144 170 165 173 189 209 206 174 192 136 178 243 238 230 228 213 193 109 76 66 52 193 181 198 251
338 350 322 307 243 192 161 145 153 163 161 159 157 154 156 160 155 160 176 189 179 184 196 212 216 194 201 186 212 199 238 240 226 185 82 113 119 107 46 106 200 214 266
17 9 341 327 199 124 118 135 160 164 165 164 164 162 164 163 169 179 186 198 191 192 194 202 212 212 209 207 202 187 209 256 256 221 152 133 133 140 106 118 148 215 276
11 3 344 350 105 119 121 153 175 182 171 148 147 163 170 170 175 180 188 196 203 199 197 195 207 215 222 204 201 198 213 241 245 242 178 161 157 144 144 124 171 216 256
6 332 320 54 104 131 140 167 199 173 133 135 163 177 185 187 174 176 202 203 202 203 204 201 213 211 202 202 214 216 228 250 237 246 206 179 183 185 184 198 207 182 349
291 275 221 214 178 166 160 198 209 164 154 166 198 195 191 184 174 179 197 205 203 207 208 206 215 215 202 209 215 223 234 248 256 244 207 184 191 195 208 220 220 207 195
266 256 217 226 225 191 179 206 211 190 178 185 200 199 188 175 178 185 194 200 204 211 217 215 217 212 201 198 214 227 227 235 251 259 204 187 189 199 211 220 228 220 210
268 263 245 241 239 201 191 207 213 215 206 196 196 198 194 183 187 189 208 214 208 200 209 224 218 209 217 226 217 211 222 226 226 217 209 199 183 201 210 201 207 213 211
276 259 253 244 244 224 218 210 206 212 211 215 203 196 191 187 181 174 205 323 224 203 206 213 209 220 221 219 220 227 233 232 215 195 203 217 210 204 206 207 214 212 212
Height
1505 1507 1509 1511 1513 1515 1516 1517 1518 1519 1519 1520 1521 1522 1523 1523 1524 1524 1524 1525 1525 1524 1525 1525 1525 1525 1525 1525 1525 1525 1526 1526 1526 1527 1527 1527 1528 1528 1528 1529 1529 1529 1529
1503 1505 1507 1509 1511 1513 1514 1516 1517 1518 1518 1519 1520 1521 1522 1523 1523 1524 1524 1524 1524 1524 1525 1525 1524 1524 1524 1525 1525 1525 1525 1526 1526 1526 1526 1527 1529 1528 1529 1529 1529 1529 1529
1500 1503 1505 1507 1509 1511 1513 1514 1515 1517 1518 1518 1520 1521 1521 1522 1522 1523 1523 1524 1524 1524 1524 1524 1524 1524 1524 1524 1525 1525 1525 1525 1526 1526 1527 1527 1528 1528 1529 1529 1529 1529 1529
1499 1501 1503 1505 1507 1509 1511 1513 1514 1515 1516 1517 1518 1519 1520 1520 1521 1522 1523 1523 1523 1523 1523 1523 1523 1523 1524 1524 1524 1524 1525 1525 1525 1525 1526 1527 1527 1528 1528 1529 1529 1528 1528
1497 1499 1501 1503 1505 1507 1509 1511 1512 1513 1514 1515 1517 1518 1519 1520 1521 1521 1522 1522 1522 1522 1523 1523 1523 1523 1523 1523 1523 1524 1524 1524 1524 1525 1525 1526 1526 1526 1527 1527 1528 1528 1528
1495 1497 1499 1501 1503 1505 1507 1508 1510 1511 1512 1513 1515 1516 1517 1518 1519 1520 1520 1521 1521 1521 1522 1522 1522 1522 1522 1522 1522 1523 1523 1523 1523 1524 1525 1525 1525 1525 1526 1526 1526 1526 1527
1493 1496 1497 1499 1502 1503 1504 1506 1507 1508 1510 1511 1513 1514 1515 1516 1517 1518 1519 1519 1519 1520 1520 1520 1520 1520 1521 1521 1521 1521 1522 1522 1522 1523 1524 1524 1524 1525 1525 1525 1525 1525 1526
1491 1493 1496 1497 1500 1501 1502 1503 1505 1506 1507 1509 1511 1512 1513 1514 1515 1516 1517 1517 1518 1518 1519 1519 1519 1519 1519 1519 1519 1520 1520 1521 1521 1522 1522 1523 1523 1523 1523 1524 1524 1524 1524
1489 1491 1493 1495 1497 1499 1500 1501 1503 1504 1505 1507 1509 1510 1511 1512 1514 1515 1515 1516 1516 1517 1517 1517 1518 1518 1518 1518 1518 1518 1518 1519 1520 1520 1521 1521 1521 1522 1522 1522 1523 1523 1523
1488 1490 1492 1494 1496 1497 1498 1499 1500 1502 1503 1505 1506 1508 1509 1510 1511 1512 1513 1514 1514 1515 1515 1516 1516 1516 1516 1516 1517 1517 1517 1517 1518 1518 1519 1519 1519 1520 1520 1520 1520 1521 1522
1487 1489 1491 1493 1494 1496 1497 1498 1499 1500 1501 1502 1504 1505 1507 1508 1509 1510 1511 1512 1512 1513 1513 1514 1514 1514 1514 1515 1515 1515 1515 1515 1516 1516 1517 1517 1518 1518 1518 1518 1519 1519 1520
1486 1488 1489 1491 1493 1494 1495 1496 1497 1498 1499 1500 1502 1503 1504 1506 1507 1508 1509 1510 1510 1511 1511 1512 1512 1512 1513 1513 1513 1513 1513 1514 1514 1515 1515 1516 1516 1516 1516 1516 1517 1517 1518
1485 1487 1489 1490 1491 1492 1493 1494 1495 1496 1497 1498 1500 1501 1502 1503 1504 1505 1506 1507 1508 1509 1509 1510 1510 1510 1511 1511 1511 1511 1512 1512 1513 1513 1513 1514 1514 1514 1515 1515 1515 1515 1516
1484 1486 1487 1489 1490 1491 1492 1493 1493 1494 1495 1496 1497 1499 1500 1501 1502 1503 1504 1505 1505 1506 1507 1507 1508 1508 1508 1509 1509 1509 1510 1510 1511 1511 1512 1512 1512 1513 1513 1513 1513 1513 1514
1482 1484 1486 1487 1488 1489 1490 1491 1492 1493 1494 1495 1495 1497 1498 1499 1500 1501 1501 1502 1503 1504 1504 1505 1505 1506 1506 1507 1507 1508 1508 1508 1509 1509 1509 1510 1510 1510 1511 1511 1511 1511 1511
1481 1482 1484 1485 1486 1488 1489 1489 1490 1491 1492 1493 1494 1495 1496 1496 1497 1498 1499 1499 1500 1501 1502 1502 1503 1503 1504 1504 1505 1506 1506 1506 1507 1507 1507 1508 1508 1508 1508 1509 1509 1509 1509
1479 1481 1482 1483 1484 1485 1486 1487 1488 1489 1490 1491 1492 1492 1493 1494 1495 1496 1496 1497 1498 1499 1499 1500 1500 1500 1501 1502 1503 1503 1504 1504 1504 1505 1505 1505 1505 1505 1506 1506 1506 1507 1507
1478 1479 1480 1481 1482 1482 1483 1484 1485 1486 1487 1488 1489 1490 1490 1491 1492 1493 1493 1494 1495 1496 1496 1497 1498 1498 1499 1499 1500 1501 1501 1502 1502 1503 1503 1503 1503 1503 1503 1503 1503 1504 1504
1477 1478 1478 1478 1479 1480 1481 1482 1483 1484 1485 1486 1486 1487 1488 1489 1489 1490 1491 1491 1492 1493 1494 1494 1495 1496 1496 1497 1497 1498 1498 1499 1499 1500 1500 1500 1500 1500 1501 1501 1500 1501 1502
1475 1476 1476 1476 1477 1477 1478 1479 1480 1481 1482 1483 1484 1485 1485 1486 1487 1487 1488 1489 1490 1490 1491 1491 1492 1493 1493 1494 1494 1495 1495 1495 1496 1497 1497 1497 1497 1498 1498 1498 1498 1498 1499
1474 1474 1474 1474 1475 1475 1476 1476 1478 1478 1479 1481 1481 1482 1483 1484 1484 1485 1486 1486 1487 1488 1488 1489 1489 1490 1491 1491 1491 1492 1492 1493 1493 1493 1493 1494 1494 1495 1495 1495 1495 1495 1496
1471 1472 1472 1472 1473 1473 1473 1474 1475 1476 1477 1478 1478 1479 1480 1481 1482 1482 1483 1484 1484 1485 1485 1486 1486 1487 1487 1488 1488 1488 1489 1489 1490 1490 1490 1491 1491 1491 1492 1492 1492 1492 1493
1469 1470 1470 1470 1470 1471 1471 1472 1472 1473 1474 1475 1476 1476 1477 1478 1479 1479 1480 1481 1481 1482 1482 1482 1483 1483 1484 1484 1485 1485 1486 1486 1486 1487 1487 1487 1488 1488 1488 1489 1489 1489 1489
1467 1467 1467 1467 1467 1468 1469 1469 1470 1470 1471 1471 1472 1474 1474 1475 1476 1476 1477 1477 1478 1478 1478 1479 1479 1479 1480 1480 1480 1481 1482 1482 1483 1483 1483 1484 1484 1484 1484 1485 1485 1486 1486
1465 1464 1464 1464 1465 1465 1466 1466 1467 1467 1467 1468 1469 1470 1471 1472 1472 1473 1473 1473 1474 1474 1474 1474 1475 1475 1475 1476 1477 1477 1477 1478 1479 1479 1480 1480 1480 1480 1481 1481 1482 1482 1483
1462 1462 1461 1461 1462 1462 1462 1463 1464 1464 1464 1465 1466 1466 1467 1468 1469 1469 1470 1470 1471 1471 1472 1472 1472 1472 1472 1473 1473 1473 1474 1474 1475 1476 1475 1476 1476 1477 1477 1478 1478 1479 1480